| time (UTC) | temp F | wind direction | speed MPH | gust MPH | rain 1hr in | rain 24hr in | rain mn in | humidity % | barometer mb |
| 20260901152317 | 78 | 315 | 1.0 | 2.0 | 0.00 | 0.03 | 0.00 | 47 | 1019.4 |
| 20260901151317 | 76 | 0.0 | 0.0 | 0.00 | 0.03 | 0.00 | 54 | 1019.2 | |
| 20260901150337 | 75 | 0.0 | 0.0 | 0.00 | 0.03 | 0.00 | 55 | 1019.2 | |
| 20260901145317 | 74 | 0.0 | 0.0 | 0.00 | 0.03 | 0.00 | 57 | 1019.5 | |
| 20260901144317 | 73 | 0.0 | 0.0 | 0.00 | 0.03 | 0.00 | 58 | 1019.2 | |
| 20260901143317 | 73 | 0.0 | 1.0 | 0.00 | 0.03 | 0.00 | 60 | 1019.1 | |
| 20260901142317 | 73 | 0.0 | 0.0 | 0.00 | 0.03 | 0.00 | 59 | 1019.1 | |
| 20260901141317 | 73 | 0.0 | 0.0 | 0.00 | 0.03 | 0.00 | 59 | 1019.0 | |
| 20260901140317 | 72 | 0.0 | 0.0 | 0.00 | 0.03 | 0.00 | 60 | 1018.9 | |
| 20260901135337 | 72 | 0.0 | 0.0 | 0.00 | 0.03 | 0.00 | 60 | 1019.4 | |
| 20260901134317 | 72 | 0.0 | 0.0 | 0.00 | 0.03 | 0.00 | 58 | 1019.3 | |
| 20260901133316 | 72 | 0.0 | 0.0 | 0.00 | 0.03 | 0.00 | 57 | 1019.2 | |
| 20260901132317 | 72 | 0.0 | 0.0 | 0.00 | 0.03 | 0.00 | 58 | 1020.5 | |
| 20260901131317 | 72 | 0.0 | 0.0 | 0.00 | 0.03 | 0.00 | 59 | 1020.6 | |
| 20260901130316 | 71 | 0.0 | 0.0 | 0.00 | 0.03 | 0.00 | 60 | 1020.5 | |
| 20260901125316 | 71 | 0.0 | 0.0 | 0.00 | 0.03 | 0.00 | 61 | 1020.4 | |
| 20260901124317 | 71 | 0.0 | 0.0 | 0.00 | 0.03 | 0.00 | 60 | 1020.3 | |
| 20260901123336 | 70 | 0.0 | 0.0 | 0.00 | 0.03 | 0.00 | 61 | 1020.2 | |
| 20260901122316 | 70 | 0.0 | 0.0 | 0.00 | 0.03 | 0.00 | 62 | 1020.3 | |
| 20260901121316 | 70 | 0.0 | 0.0 | 0.00 | 0.03 | 0.00 | 62 | 1020.2 | |
| 20260901120317 | 70 | 0.0 | 0.0 | 0.00 | 0.03 | 0.00 | 61 | 1020.1 | |
| 20260901115336 | 71 | 0.0 | 0.0 | 0.00 | 0.03 | 0.00 | 60 | 1020.3 | |
| 20260901114317 | 71 | 0.0 | 0.0 | 0.00 | 0.03 | 0.00 | 60 | 1020.3 | |
| 20260901113337 | 71 | 0.0 | 0.0 | 0.00 | 0.03 | 0.00 | 61 | 1020.3 | |
| 20260901112317 | 71 | 0.0 | 0.0 | 0.00 | 0.03 | 0.00 | 61 | 1020.6 | |
| 20260901111317 | 71 | 0.0 | 0.0 | 0.00 | 0.03 | 0.00 | 60 | 1020.5 | |
| 20260901110316 | 71 | 0.0 | 0.0 | 0.00 | 0.03 | 0.00 | 60 | 1020.5 | |
| 20260901105316 | 72 | 0.0 | 0.0 | 0.00 | 0.03 | 0.00 | 58 | 1020.4 | |
| 20260901104316 | 72 | 0.0 | 0.0 | 0.00 | 0.03 | 0.00 | 57 | 1020.2 | |
| 20260901103356 | 73 | 293 | 3.0 | 4.0 | 0.00 | 0.03 | 0.00 | 54 | 1020.0 |
| 20260901102337 | 74 | 293 | 3.0 | 5.0 | 0.00 | 0.03 | 0.00 | 53 | 1020.3 |
| 20260901101316 | 73 | 23 | 3.0 | 4.0 | 0.00 | 0.03 | 0.00 | 53 | 1019.7 |
| 20260901100317 | 72 | 23 | 1.0 | 3.0 | 0.00 | 0.03 | 0.00 | 56 | 1019.9 |
| 20260901095316 | 72 | 0.0 | 0.0 | 0.00 | 0.03 | 0.00 | 58 | 1019.7 | |
| 20260901094316 | 72 | 0.0 | 0.0 | 0.00 | 0.03 | 0.00 | 60 | 1019.9 | |
| 20260901093317 | 72 | 23 | 2.0 | 3.0 | 0.00 | 0.03 | 0.00 | 61 | 1020.0 |
| 20260901092316 | 72 | 0.0 | 0.0 | 0.00 | 0.03 | 0.00 | 62 | 1020.2 | |
| 20260901091317 | 72 | 0.0 | 0.0 | 0.00 | 0.03 | 0.00 | 63 | 1020.2 | |
| 20260901090316 | 72 | 0.0 | 0.0 | 0.00 | 0.03 | 0.00 | 63 | 1020.3 | |
| 20260901085316 | 72 | 0.0 | 0.0 | 0.00 | 0.03 | 0.00 | 63 | 1020.3 | |
| 20260901084316 | 72 | 0.0 | 0.0 | 0.00 | 0.03 | 0.00 | 62 | 1020.2 | |
| 20260901083317 | 72 | 0.0 | 0.0 | 0.00 | 0.03 | 0.00 | 62 | 1020.2 | |
| 20260901082316 | 73 | 0.0 | 0.0 | 0.00 | 0.03 | 0.00 | 62 | 1020.2 | |
| 20260901081356 | 73 | 0.0 | 0.0 | 0.00 | 0.03 | 0.00 | 61 | 1020.1 | |
| 20260901080317 | 73 | 0.0 | 0.0 | 0.00 | 0.03 | 0.00 | 61 | 1020.0 | |
| 20260901075316 | 74 | 0.0 | 0.0 | 0.00 | 0.03 | 0.00 | 60 | 1020.2 | |
| 20260901074316 | 73 | 0.0 | 0.0 | 0.00 | 0.03 | 0.00 | 60 | 1020.1 | |
| 20260901073317 | 74 | 0.0 | 0.0 | 0.00 | 0.03 | 0.00 | 60 | 1020.3 | |
| 20260901072316 | 74 | 0.0 | 0.0 | 0.00 | 0.03 | 0.00 | 59 | 1020.4 | |
| 20260901071316 | 74 | 0.0 | 0.0 | 0.00 | 0.03 | 0.00 | 58 | 1020.6 | |
| 20260901070316 | 74 | 0.0 | 0.0 | 0.00 | 0.03 | 0.00 | 57 | 1020.5 | |
| 20260901065316 | 75 | 0.0 | 0.0 | 0.00 | 0.03 | 0.00 | 56 | 1020.5 | |
| 20260901064316 | 75 | 0.0 | 0.0 | 0.00 | 0.03 | 0.00 | 54 | 1020.3 | |
| 20260901063337 | 75 | 0 | 3.0 | 9.0 | 0.00 | 0.03 | 0.00 | 54 | 1020.0 |
| 20260901062316 | 75 | 45 | 2.0 | 5.0 | 0.02 | 0.03 | 0.00 | 55 | 1019.6 |
| 20260901061316 | 75 | 338 | 4.0 | 10.0 | 0.03 | 0.03 | 0.00 | 56 | 1019.1 |
| 20260901060316 | 75 | 23 | 4.0 | 7.0 | 0.03 | 0.03 | 0.00 | 59 | 1019.3 |
| 20260901055317 | 74 | 23 | 4.0 | 7.0 | 0.03 | 0.03 | 0.03 | 63 | 1018.9 |
| 20260901054317 | 73 | 23 | 2.0 | 3.0 | 0.03 | 0.03 | 0.03 | 66 | 1018.9 |
| 20260901053337 | 73 | 0.0 | 1.0 | 0.03 | 0.03 | 0.03 | 65 | 1018.7 | |
| 20260901052317 | 75 | 23 | 2.0 | 6.0 | 0.01 | 0.01 | 0.01 | 60 | 1018.7 |
| 20260901051316 | 78 | 45 | 1.0 | 3.0 | 0.00 | 0.00 | 0.00 | 49 | 1018.9 |
| 20260901050317 | 79 | 0 | 4.0 | 7.0 | 0.00 | 0.00 | 0.00 | 45 | 1018.6 |
| 20260901045317 | 78 | 338 | 4.0 | 6.0 | 0.00 | 0.00 | 0.00 | 46 | 1018.1 |
| 20260901044316 | 78 | 338 | 5.0 | 10.0 | 0.00 | 0.00 | 0.00 | 46 | 1018.1 |
| 20260901043337 | 77 | 0 | 4.0 | 9.0 | 0.00 | 0.00 | 0.00 | 47 | 1017.7 |
| 20260901042337 | 77 | 0 | 3.0 | 6.0 | 0.00 | 0.00 | 0.00 | 49 | 1017.4 |
| 20260901041316 | 76 | 315 | 2.0 | 4.0 | 0.00 | 0.00 | 0.00 | 50 | 1017.5 |
| 20260901040317 | 76 | 23 | 3.0 | 7.0 | 0.00 | 0.00 | 0.00 | 52 | 1017.3 |
| 20260901035336 | 76 | 338 | 3.0 | 7.0 | 0.00 | 0.00 | 0.00 | 54 | 1017.1 |
| 20260901034316 | 75 | 0.0 | 0.0 | 0.00 | 0.00 | 0.00 | 56 | 1016.9 | |
| 20260901033336 | 75 | 338 | 1.0 | 6.0 | 0.00 | 0.00 | 0.00 | 57 | 1016.9 |
| 20260901032316 | 75 | 0.0 | 0.0 | 0.00 | 0.00 | 0.00 | 57 | 1016.8 | |
| 20260901031316 | 75 | 293 | 2.0 | 5.0 | 0.00 | 0.00 | 0.00 | 58 | 1016.7 |
| 20260901030317 | 75 | 293 | 1.0 | 6.0 | 0.00 | 0.00 | 0.00 | 57 | 1016.9 |
| 20260901025316 | 76 | 293 | 4.0 | 9.0 | 0.00 | 0.00 | 0.00 | 57 | 1016.6 |
| 20260901024317 | 76 | 315 | 7.0 | 10.0 | 0.00 | 0.00 | 0.00 | 55 | 1016.4 |
| 20260901023317 | 78 | 293 | 5.0 | 8.0 | 0.00 | 0.00 | 0.00 | 54 | 1016.3 |
| 20260901022336 | 78 | 180 | 1.0 | 6.0 | 0.00 | 0.00 | 0.00 | 52 | 1016.0 |
| 20260901021337 | 78 | 225 | 2.0 | 6.0 | 0.00 | 0.00 | 0.00 | 51 | 1015.7 |
| 20260901020317 | 78 | 0.0 | 0.0 | 0.00 | 0.00 | 0.00 | 51 | 1015.5 | |
| 20260901015336 | 79 | 158 | 3.0 | 6.0 | 0.00 | 0.00 | 0.00 | 50 | 1015.0 |
| 20260901014316 | 81 | 225 | 11.0 | 16.0 | 0.00 | 0.00 | 0.00 | 46 | 1015.0 |
| 20260901013342 | 82 | 203 | 2.0 | 6.0 | 0.00 | 0.00 | 0.00 | 44 | 1014.5 |
| 20260901012317 | 85 | 225 | 7.0 | 12.0 | 0.00 | 0.00 | 0.00 | 39 | 1014.0 |
| 20260901011317 | 92 | 225 | 14.0 | 23.0 | 0.00 | 0.00 | 0.00 | 29 | 1013.9 |
| 20260901010336 | 93 | 0.0 | 0.0 | 0.00 | 0.00 | 0.00 | 23 | 1012.7 | |
| 20260901005316 | 93 | 225 | 3.0 | 4.0 | 0.00 | 0.00 | 0.00 | 22 | 1012.9 |
| 20260901004337 | 94 | 135 | 3.0 | 7.0 | 0.00 | 0.00 | 0.00 | 22 | 1013.1 |
| 20260901003317 | 94 | 203 | 3.0 | 5.0 | 0.00 | 0.00 | 0.00 | 21 | 1013.4 |
| 20260901002316 | 94 | 158 | 2.0 | 5.0 | 0.00 | 0.00 | 0.00 | 21 | 1013.4 |
| 20260901001316 | 95 | 225 | 4.0 | 9.0 | 0.00 | 0.00 | 0.00 | 20 | 1013.4 |
| 20260901000316 | 96 | 158 | 3.0 | 6.0 | 0.00 | 0.00 | 0.00 | 19 | 1013.6 |
| 20260831235316 | 97 | 158 | 7.0 | 13.0 | 0.00 | 0.00 | 0.00 | 19 | 1013.7 |
| 20260831234316 | 98 | 0.0 | 0.0 | 0.00 | 0.00 | 0.00 | 19 | 1013.8 | |
| 20260831233316 | 98 | 203 | 7.0 | 10.0 | 0.00 | 0.00 | 0.00 | 19 | 1013.7 |
| 20260831232336 | 98 | 203 | 5.0 | 10.0 | 0.00 | 0.00 | 0.00 | 18 | 1013.9 |
| 20260831231336 | 99 | 0.0 | 0.0 | 0.00 | 0.00 | 0.00 | 17 | 1013.9 | |
| 20260831230316 | 98 | 225 | 1.0 | 4.0 | 0.00 | 0.00 | 0.00 | 17 | 1013.8 |
| 20260831225316 | 98 | 225 | 2.0 | 5.0 | 0.00 | 0.00 | 0.00 | 18 | 1014.0 |
| 20260831224316 | 98 | 158 | 5.0 | 7.0 | 0.00 | 0.00 | 0.00 | 18 | 1014.0 |
| 20260831223316 | 98 | 0.0 | 0.0 | 0.00 | 0.00 | 0.00 | 19 | 1014.3 | |
| 20260831222317 | 98 | 248 | 2.0 | 5.0 | 0.00 | 0.00 | 0.00 | 20 | 1014.9 |
| 20260831221316 | 99 | 203 | 2.0 | 6.0 | 0.00 | 0.00 | 0.00 | 18 | 1015.3 |
| 20260831220317 | 98 | 135 | 4.0 | 6.0 | 0.00 | 0.00 | 0.00 | 19 | 1015.1 |
| 20260831215336 | 98 | 0.0 | 0.0 | 0.00 | 0.00 | 0.00 | 19 | 1015.4 | |
| 20260831214317 | 99 | 158 | 3.0 | 4.0 | 0.00 | 0.00 | 0.00 | 19 | 1015.9 |
| 20260831213316 | 98 | 0.0 | 0.0 | 0.00 | 0.00 | 0.00 | 19 | 1015.7 | |
| 20260831212317 | 97 | 203 | 4.0 | 7.0 | 0.00 | 0.00 | 0.00 | 21 | 1016.0 |
| 20260831211316 | 97 | 315 | 2.0 | 5.0 | 0.00 | 0.00 | 0.00 | 21 | 1016.3 |
| 20260831210316 | 96 | 338 | 3.0 | 4.0 | 0.00 | 0.00 | 0.00 | 22 | 1016.2 |
| 20260831205317 | 96 | 315 | 4.0 | 5.0 | 0.00 | 0.00 | 0.00 | 22 | 1016.7 |
| 20260831204336 | 97 | 0.0 | 1.0 | 0.00 | 0.00 | 0.00 | 22 | 1016.9 | |
| 20260831203317 | 96 | 0.0 | 1.0 | 0.00 | 0.00 | 0.00 | 23 | 1017.2 | |
| 20260831202336 | 96 | 0.0 | 0.0 | 0.00 | 0.00 | 0.00 | 23 | 1017.8 | |
| 20260831201316 | 96 | 225 | 1.0 | 4.0 | 0.00 | 0.00 | 0.00 | 23 | 1017.8 |
| 20260831200316 | 96 | 225 | 3.0 | 7.0 | 0.00 | 0.00 | 0.00 | 24 | 1018.3 |
| 20260831195316 | 96 | 248 | 4.0 | 10.0 | 0.00 | 0.00 | 0.00 | 24 | 1018.4 |
| 20260831194316 | 96 | 225 | 3.0 | 6.0 | 0.00 | 0.00 | 0.00 | 23 | 1018.5 |
| 20260831193317 | 96 | 270 | 1.0 | 2.0 | 0.00 | 0.00 | 0.00 | 24 | 1018.6 |
| 20260831192337 | 95 | 315 | 3.0 | 5.0 | 0.00 | 0.00 | 0.00 | 23 | 1018.6 |
| 20260831191316 | 96 | 0.0 | 0.0 | 0.00 | 0.00 | 0.00 | 23 | 1018.7 | |
| 20260831190317 | 94 | 0.0 | 2.0 | 0.00 | 0.00 | 0.00 | 24 | 1018.6 | |
| 20260831185316 | 94 | 248 | 1.0 | 4.0 | 0.00 | 0.00 | 0.00 | 24 | 1018.8 |
| 20260831184316 | 94 | 0.0 | 1.0 | 0.00 | 0.00 | 0.00 | 25 | 1018.9 | |
| 20260831183316 | 95 | 225 | 2.0 | 5.0 | 0.00 | 0.00 | 0.00 | 24 | 1019.1 |
| 20260831182316 | 93 | 0.0 | 0.0 | 0.00 | 0.00 | 0.00 | 25 | 1018.9 | |
| 20260831181316 | 93 | 0.0 | 0.0 | 0.00 | 0.00 | 0.00 | 25 | 1019.0 | |
| 20260831180316 | 92 | 225 | 4.0 | 5.0 | 0.00 | 0.00 | 0.00 | 26 | 1018.9 |
| 20260831175336 | 92 | 0.0 | 2.0 | 0.00 | 0.00 | 0.00 | 27 | 1019.0 | |
| 20260831174336 | 90 | 225 | 1.0 | 2.0 | 0.00 | 0.00 | 0.00 | 28 | 1019.1 |
| 20260831173316 | 91 | 225 | 1.0 | 3.0 | 0.00 | 0.00 | 0.00 | 28 | 1019.0 |
| 20260831172316 | 90 | 270 | 1.0 | 2.0 | 0.00 | 0.00 | 0.00 | 29 | 1018.9 |
| 20260831171336 | 88 | 315 | 3.0 | 5.0 | 0.00 | 0.00 | 0.00 | 30 | 1018.9 |
| 20260831170337 | 89 | 270 | 2.0 | 4.0 | 0.00 | 0.00 | 0.00 | 30 | 1019.0 |
| 20260831165336 | 88 | 293 | 2.0 | 3.0 | 0.00 | 0.00 | 0.00 | 31 | 1019.0 |
| 20260831164316 | 87 | 0.0 | 0.0 | 0.00 | 0.00 | 0.00 | 32 | 1019.0 | |
| 20260831163316 | 86 | 293 | 1.0 | 2.0 | 0.00 | 0.00 | 0.00 | 33 | 1018.8 |
| 20260831162316 | 86 | 293 | 3.0 | 4.0 | 0.00 | 0.00 | 0.00 | 33 | 1019.1 |
| 20260831161316 | 85 | 0.0 | 0.0 | 0.00 | 0.00 | 0.00 | 35 | 1018.7 | |
| 20260831160316 | 85 | 0.0 | 1.0 | 0.00 | 0.00 | 0.00 | 35 | 1018.7 | |
| 20260831155316 | 83 | 0.0 | 0.0 | 0.00 | 0.00 | 0.00 | 37 | 1018.6 | |
| 20260831154316 | 83 | 0.0 | 0.0 | 0.00 | 0.00 | 0.00 | 37 | 1018.5 | |
| 20260831153316 | 83 | 0.0 | 1.0 | 0.00 | 0.00 | 0.00 | 37 | 1018.6 |